User: anonymous   Login
Location: Caltech
(34.1382°N, 118.1253°W)
Time: 13:36:05
(UTC-07:00)
Language:

ALOS - Orbit

View from above orbital plane
View from above orbital plane
View from above satellite
View from above satellite

Ground track
Ground track

The orbit data is extracted from the following two-line orbital elements,

1 28931U 06002A   18116.36858631  .00000158  00000-0  39754-4 0  9994
2 28931  97.8231 132.6597 0002515  66.5639 293.5830 14.62481975653232
Epoch (UTC): 26 April 2018 08:50:45
Eccentricity: 0.0002515
inclination: 97.8231°
perigee height: 683 km
apogee height: 687 km
right ascension of ascending node: 132.6597°
argument of perigee: 66.5639°
revolutions per day: 14.62481975
mean anomaly at epoch: 293.5830°
orbit number at epoch: 65323

The dashed part of the orbit path shows where the satellite is in the earth's shadow,  

DLR